Wetbulb
42.28 36.02 33.25 36.95 38.76 39.88 38.41 36.89 36.06 39.75 43.11 40.22 39.53 39.87 41.93 45.23 44.00 43.14 43.32 45.68 46.42 47.87 49.76 53.69 57.08 57.76 57.62 57.31 57.24 59.57 64.83 67.37 68.59 69.11 66.99 66.81 68.74 68.68 68.92 68.92 70.00 71.24 70.63 70.36
38.09 34.37 40.86 42.79 42.39 41.04 39.82 37.27 36.60 39.50 42.71 40.52 39.37 39.13 41.43 43.65 43.47 43.68 44.92 44.61 44.85 44.73 47.61 53.19 55.03 56.78 57.58 57.16 56.97 58.84 60.96 63.76 67.24 68.59 68.10 66.84 66.34 67.37 68.41 68.60 68.61 68.64 71.13 71.59
36.19 39.84 44.43 43.11 41.21 40.09 39.64 37.79 36.29 36.80 40.90 40.92 38.41 36.52 38.53 43.17 44.37 45.00 45.36 45.98 46.23 46.14 46.22 51.55 54.41 54.83 56.30 56.10 55.37 56.51 58.06 59.60 60.51 63.60 67.24 66.03 65.38 66.08 65.86 66.86 67.84 68.34 68.53 69.95
38.55 42.79 42.45 41.30 39.78 40.81 35.14 41.04 40.79 40.06 35.78 29.79 40.19 28.12 35.75 40.09 41.57 43.03 44.19 43.39 44.61 46.51 47.32 50.42 52.88 52.76 55.11 54.81 55.46 56.03 56.51 56.49 57.21 58.09 60.53 64.54 63.15 61.49 62.96 65.10 66.46 67.20 68.05 67.76
38.83 40.29 39.54 38.88 40.50 44.00 38.85 42.87 40.59 39.25 33.91 30.65 34.40 29.54 34.27 38.29 38.71 40.28 42.94 43.77 44.61 46.04 48.05 47.78 50.43 54.41 54.65 54.92 54.11 54.60 55.22 55.14 55.54 56.27 58.90 60.08 60.54 62.78 63.97 64.68 64.30 65.35 67.30 67.72
40.54 44.55 42.48 42.07 45.29 45.06 45.11 40.36 37.04 35.13 31.32 25.05 33.13 30.88 32.42 35.11 37.46 39.79 43.37 46.20 46.43 45.79 46.65 48.19 51.66 51.55 51.73 53.31 54.15 54.56 54.59 54.44 55.42 55.71 55.40 56.23 57.48 58.81 60.98 61.53 62.19 64.42 66.18 66.03
40.28 40.99 44.29 46.64 41.88 43.61 42.32 36.82 27.76 23.05 22.85 25.46 34.33 32.39 35.06 39.64 43.50 44.16 44.95 45.18 45.44 46.39 47.65 48.75 50.14 49.70 48.63 50.18 51.88 52.95 54.09 53.64 54.69 55.19 55.14 55.73 56.25 56.71 56.93 58.62 60.82 62.03 63.47 63.79
33.93 30.85 41.03 45.16 42.90 39.55 37.61 35.11 26.96 23.65 20.53 26.69 35.42 29.22 33.47 42.99 45.75 46.48 47.36 44.42 45.45 46.95 48.33 49.01 49.18 48.78 48.69 50.00 49.74 52.40 51.90 52.07 53.76 54.28 54.22 54.62 55.16 54.73 56.31 57.69 58.33 58.59 60.11 62.14
35.02 34.99 43.39 44.74 45.11 43.54 38.39 32.79 37.00 32.27 33.27 29.35 30.26 34.18 39.78 43.26 43.99 46.07 46.63 46.18 43.39 45.29 46.59 48.07 47.11 47.08 48.35 48.09 50.47 51.81 52.10 52.42 53.08 54.88 55.83 55.45 55.34 55.27 55.79 56.91 56.62 57.68 60.15 60.81
37.85 30.98 40.29 43.19 44.31 43.85 41.27 41.84 29.56 34.18 25.90 24.35 27.85 29.92 30.78 38.05 41.15 44.21 44.99 44.96 45.78 46.51 46.62 46.89 46.98 46.93 48.17 48.44 50.41 50.04 50.94 50.39 51.48 52.73 54.02 54.69 55.41 57.82 57.62 56.55 56.94 57.11 57.36 58.75
37.51 33.91 34.19 37.96 37.71 35.95 37.02 34.96 34.63 34.16 33.74 27.25 23.98 26.05 37.94 39.08 41.31 43.49 45.10 46.95 44.97 46.12 46.58 47.25 46.13 46.74 47.43 47.86 48.69 49.07 49.08 49.65 50.13 50.26 50.56 50.74 52.43 54.28 55.27 57.01 58.43 57.54 57.84 58.84
37.76 33.15 28.00 31.88 38.86 43.18 39.57 36.25 35.83 29.28 28.24 31.92 29.52 27.28 40.94 39.73 41.70 44.21 44.90 47.36 47.36 46.50 45.85 46.55 48.14 48.00 47.47 46.05 47.83 49.97 49.72 49.95 50.80 51.24 51.72 52.53 53.39 54.17 53.88 54.29 55.24 58.24 58.59 59.18
37.97 29.27 23.37 26.78 32.86 37.80 35.11 37.03 36.64 34.69 33.94 28.75 27.16 27.70 41.53 42.93 43.59 43.83 44.71 46.93 47.71 48.25 48.61 48.35 46.93 47.28 48.02 47.46 49.04 48.95 51.44 52.03 52.52 52.21 52.37 51.06 51.27 51.45 51.61 52.68 54.27 55.78 58.18 58.87
40.87 30.01 27.75 23.96 28.38 31.47 31.14 35.78 37.36 34.16 28.22 31.20 31.44 33.57 38.74 39.81 40.48 42.12 43.82 45.45 46.57 47.97 49.07 48.98 48.87 48.29 49.30 49.42 48.98 50.21 49.70 48.58 48.42 48.97 48.29 48.10 48.12 48.96 49.93 50.94 52.30 54.46 56.63 57.99
36.08 29.36 32.42 34.02 36.26 36.47 35.03 35.33 36.84 34.44 34.35 29.72 32.42 34.50 36.22 38.54 39.81 41.01 43.13 45.06 46.24 46.36 47.44 48.74 48.80 48.74 49.06 49.43 49.25 50.11 48.71 49.03 49.20 49.59 48.77 48.36 48.46 48.73 48.68 48.83 49.55 51.44 53.90 55.56
35.27 28.92 32.57 31.47 35.41 36.28 33.28 36.19 37.14 37.00 37.20 36.65 35.99 33.52 39.59 40.79 42.09 42.36 42.50 43.93 44.21 45.57 47.14 48.73 48.97 49.28 48.49 48.37 49.99 50.59 49.06 48.53 48.50 48.43 48.41 49.32 49.28 49.66 49.23 49.08 49.34 49.40 50.61 52.53
31.53 29.13 27.43 25.52 33.99 33.15 27.97 35.07 36.31 36.81 38.21 36.43 30.63 37.31 41.18 39.34 40.28 39.99 41.78 42.22 42.60 44.61 44.32 44.38 44.68 45.58 45.65 46.42 47.73 48.30 49.39 49.79 48.26 48.16 49.14 49.94 49.67 49.75 49.31 50.02 49.87 49.35 49.45 52.57
31.35 30.17 28.59 24.91 27.91 21.30 35.45 40.22 39.26 38.59 39.14 39.35 38.48 39.42 40.63 39.67 40.44 41.54 41.94 41.29 41.17 41.78 42.57 43.20 43.43 43.99 44.92 45.61 46.40 47.90 48.35 48.42 48.62 47.84 48.47 49.56 49.50 49.59 49.42 49.02 49.45 49.53 48.87 49.99
35.36 31.46 26.27 21.60 21.81 29.82 35.88 39.03 38.10 36.06 35.14 39.10 37.46 38.56 39.84 40.64 40.67 39.63 42.18 42.16 42.04 43.05 43.90 44.29 44.83 44.73 44.71 45.01 45.97 46.60 46.83 47.44 48.07 48.37 48.40 49.12 49.16 48.86 48.76 48.70 49.01 49.20 48.21 49.85
38.27 37.32 32.06 28.52 24.74 15.40 34.78 39.84 42.29 40.71 28.97 39.13 38.59 37.72 37.82 38.82 33.39 36.65 42.04 43.58 43.80 44.59 43.96 43.59 44.48 44.90 44.32 44.45 45.28 44.92 45.41 46.58 46.96 48.07 48.44 48.70 48.65 48.45 48.05 48.53 48.29 49.08 48.54 49.49
31.98 30.08 25.21 28.77 22.77 28.17 39.08 41.07 41.20 25.46 27.72 38.65 39.12 39.19 39.78 38.13 39.29 41.38 43.60 43.94 44.71 43.79 43.14 43.76 43.86 43.62 44.10 44.79 44.48 43.70 44.58 45.06 47.20 48.77 49.34 48.95 48.73 48.44 48.73 48.72 48.36 48.34 48.77 49.06
33.19 28.82 25.19 31.63 28.44 23.06 40.54 37.85 30.42 35.26 38.03 39.07 39.59 40.32 40.45 41.17 42.16 43.23 42.34 41.48 41.81 42.17 42.89 42.72 42.06 43.00 44.42 44.89 44.41 43.49 43.40 45.49 46.96 48.39 48.51 47.95 47.98 48.70 49.60 48.33 48.09 48.33 48.76 47.14
28.63 33.95 28.52 31.80 28.66 36.96 38.66 38.09 39.12 39.29 38.43 39.86 39.97 41.82 42.37 42.15 41.85 41.27 40.13 40.52 40.70 41.28 41.84 41.96 40.65 41.63 43.17 44.44 44.50 43.25 44.76 45.98 47.14 47.70 46.43 46.92 48.05 48.90 49.09 48.14 48.07 48.04 48.31 48.30
37.05 38.51 29.35 31.93 35.35 35.85 37.71 39.51 39.81 40.30 39.97 41.43 42.76 42.87 43.35 42.14 41.01 39.56 39.26 39.37 39.96 40.07 39.94 40.20 39.16 38.87 40.17 42.29 43.43 44.31 45.19 45.96 46.19 46.21 46.57 46.94 47.63 47.83 48.57 50.41 50.12 49.49 49.40 50.42
35.11 35.63 31.73 31.20 35.33 36.27 38.31 38.68 39.71 40.74 41.94 42.82 43.40 43.58 43.25 41.48 39.85 39.01 38.90 37.67 37.52 37.91 38.07 37.57 37.23 37.74 38.32 40.14 41.63 43.38 44.57 45.01 45.06 46.23 46.55 46.69 47.73 48.44 48.76 49.65 49.78 50.37 51.46 51.35
36.07 31.57 25.36 26.08 34.29 34.58 36.24 40.17 41.24 40.53 41.07 42.63 43.54 43.26 41.92 40.84 39.54 38.82 36.83 37.45 37.35 36.41 36.76 36.85 37.45 36.91 37.01 38.27 39.27 41.74 44.04 44.90 44.44 44.76 46.45 46.73 47.25 48.66 48.85 48.91 49.21 43.82 44.10 44.17
MSLP
1009.22 1010.01 1010.34 1010.14 1010.10 1010.13 1010.09 1009.78 1009.12 1007.77 1006.91 1006.82 1006.42 1005.67 1004.80 1003.71 1003.26 1003.25 1003.48 1003.70 1003.65 1003.64 1003.45 1003.41 1004.48 1005.07 1005.28 1005.50 1005.80 1005.92 1006.26 1006.61 1006.93 1007.76 1008.31 1008.48 1008.11 1007.95 1007.91 1008.46 1008.88 1009.17 1008.98 1009.57
1010.04 1010.00 1009.31 1009.18 1009.23 1009.35 1009.21 1009.03 1008.39 1007.45 1006.77 1006.52 1006.05 1005.56 1004.58 1004.02 1003.30 1002.81 1003.03 1003.52 1003.85 1003.65 1003.58 1003.93 1004.49 1005.23 1005.57 1005.60 1005.74 1006.14 1006.54 1007.04 1007.11 1007.35 1007.78 1008.12 1008.48 1008.32 1008.01 1007.90 1008.51 1009.70 1009.42 1008.56
1009.73 1008.99 1008.58 1008.68 1008.53 1008.47 1008.05 1007.90 1007.64 1007.29 1006.87 1006.41 1006.27 1005.83 1004.95 1003.91 1003.54 1002.94 1002.76 1002.64 1003.01 1003.56 1004.28 1004.47 1004.71 1004.93 1005.49 1005.82 1005.73 1005.85 1006.29 1006.88 1007.53 1007.65 1007.75 1008.29 1008.40 1008.31 1008.50 1008.27 1008.50 1008.28 1008.29 1008.72
1008.93 1008.14 1008.25 1008.06 1008.08 1007.84 1007.48 1007.04 1006.92 1007.15 1007.46 1007.66 1007.16 1007.04 1005.71 1004.54 1004.15 1003.50 1003.02 1003.01 1003.26 1003.31 1003.51 1003.93 1004.15 1004.83 1004.85 1005.05 1005.32 1005.60 1006.02 1006.71 1007.04 1007.51 1008.02 1008.38 1008.52 1008.91 1008.66 1008.64 1008.22 1007.65 1007.61 1008.55
1007.91 1007.92 1007.90 1007.92 1007.97 1007.88 1007.69 1007.31 1007.04 1007.41 1007.93 1008.11 1007.44 1007.89 1005.52 1004.94 1004.47 1004.05 1003.35 1002.80 1002.45 1002.59 1002.72 1003.12 1003.60 1004.14 1004.73 1005.17 1005.37 1005.59 1006.02 1006.43 1006.66 1007.11 1007.56 1007.94 1008.31 1008.43 1008.62 1008.41 1008.29 1008.06 1007.82 1007.48
1007.57 1007.43 1007.68 1007.77 1007.87 1007.83 1008.10 1008.20 1008.51 1008.85 1009.10 1009.04 1007.64 1007.84 1006.01 1005.00 1004.34 1003.93 1003.18 1002.73 1002.15 1001.99 1002.09 1002.53 1003.36 1004.20 1004.91 1005.30 1005.51 1005.84 1006.26 1006.63 1006.65 1006.76 1007.07 1007.63 1007.96 1008.18 1008.41 1008.37 1008.27 1008.61 1008.62 1007.98
1008.47 1008.51 1008.35 1007.94 1008.11 1007.83 1008.76 1009.66 1010.78 1011.16 1011.12 1009.43 1008.41 1007.77 1004.92 1004.26 1003.73 1003.50 1003.18 1001.96 1001.32 1001.64 1002.04 1002.24 1003.20 1004.20 1004.87 1005.48 1005.93 1006.03 1006.24 1006.46 1006.60 1006.98 1007.38 1007.55 1007.86 1008.19 1008.38 1008.36 1008.32 1008.28 1008.04 1008.08
1009.50 1009.92 1009.29 1009.09 1009.20 1009.43 1010.07 1010.76 1011.29 1011.57 1012.32 1010.90 1009.16 1007.28 1005.03 1003.78 1003.47 1002.82 1002.43 1001.06 1000.87 1001.53 1002.07 1002.32 1003.07 1003.74 1004.26 1004.86 1005.31 1005.52 1005.90 1006.22 1006.47 1006.78 1007.22 1007.35 1007.66 1008.08 1008.32 1008.40 1008.40 1008.25 1008.23 1008.26
1010.27 1010.24 1009.63 1009.42 1009.41 1010.38 1010.51 1011.25 1011.11 1011.74 1012.59 1012.29 1009.78 1006.87 1005.08 1004.01 1003.33 1002.80 1002.70 1002.37 1002.12 1002.10 1002.66 1002.78 1003.02 1003.35 1003.75 1004.17 1004.77 1005.11 1005.52 1005.60 1005.83 1006.20 1006.64 1007.04 1007.19 1007.56 1007.81 1007.70 1007.82 1007.85 1007.73 1007.63
1010.59 1010.72 1010.09 1009.41 1009.68 1009.92 1010.44 1011.79 1012.22 1012.91 1012.73 1011.62 1009.34 1007.86 1006.17 1004.95 1003.96 1003.58 1003.44 1003.76 1004.08 1004.48 1004.32 1003.97 1003.61 1003.64 1003.67 1003.73 1004.14 1004.44 1004.57 1004.96 1005.19 1005.68 1006.14 1006.47 1006.54 1006.55 1006.73 1006.96 1007.21 1007.09 1006.91 1006.93
1010.98 1011.74 1011.19 1010.49 1009.97 1010.00 1010.97 1011.73 1012.26 1012.55 1012.90 1012.05 1010.37 1008.20 1006.42 1005.40 1004.60 1004.55 1004.75 1004.51 1004.80 1005.15 1005.14 1004.75 1004.74 1004.60 1003.61 1003.57 1003.99 1004.17 1004.36 1004.52 1004.80 1005.04 1005.47 1005.81 1006.13 1006.22 1006.27 1006.39 1006.26 1006.17 1006.36 1006.59
1011.63 1012.25 1012.27 1011.31 1010.11 1010.12 1010.67 1011.53 1012.05 1012.75 1013.01 1012.17 1011.14 1008.92 1006.52 1005.79 1005.32 1004.86 1004.82 1004.56 1004.74 1004.99 1005.47 1005.46 1005.11 1004.93 1004.58 1004.56 1003.89 1003.83 1003.95 1004.27 1004.40 1004.61 1005.06 1005.40 1005.65 1005.79 1006.27 1006.48 1006.41 1006.27 1006.04 1005.98
1011.48 1012.53 1012.95 1012.04 1011.20 1010.89 1010.88 1011.31 1011.86 1012.42 1012.77 1011.70 1010.91 1008.81 1006.51 1006.43 1005.67 1005.61 1004.84 1004.91 1005.48 1004.99 1004.76 1004.83 1005.55 1005.38 1005.11 1004.47 1004.40 1004.12 1003.30 1003.76 1003.90 1004.25 1004.48 1004.79 1005.07 1005.25 1005.48 1005.79 1005.87 1005.82 1005.89 1005.93
1011.21 1012.41 1013.06 1013.08 1012.31 1011.80 1011.37 1011.04 1011.16 1011.50 1011.79 1010.60 1009.63 1008.65 1007.72 1007.46 1006.92 1006.41 1005.72 1005.26 1004.92 1005.01 1004.88 1004.43 1005.18 1004.89 1004.09 1003.91 1003.91 1004.29 1004.24 1004.08 1003.90 1004.14 1004.59 1004.91 1005.01 1005.13 1005.28 1005.30 1005.36 1005.45 1005.39 1005.48
1011.47 1012.58 1012.76 1012.51 1011.93 1011.32 1010.82 1010.42 1010.13 1010.57 1010.20 1010.09 1009.54 1009.13 1008.62 1008.04 1007.80 1007.20 1006.47 1005.99 1005.59 1005.33 1005.00 1004.81 1004.89 1004.50 1003.90 1003.42 1003.25 1003.45 1003.82 1004.27 1004.19 1004.07 1004.21 1004.29 1004.38 1004.54 1004.77 1004.97 1005.01 1004.93 1005.05 1004.91
1012.00 1012.68 1012.73 1012.39 1011.56 1011.06 1010.59 1010.11 1009.06 1009.12 1009.37 1009.28 1009.22 1008.74 1008.32 1007.99 1008.08 1007.59 1006.82 1006.37 1005.87 1005.31 1004.88 1004.39 1004.24 1003.72 1003.73 1003.51 1003.24 1003.33 1003.49 1003.64 1003.42 1003.44 1003.46 1003.51 1003.72 1003.96 1004.09 1004.27 1004.46 1004.51 1004.51 1004.33
1012.59 1012.90 1013.18 1012.83 1011.84 1011.15 1010.88 1010.81 1010.32 1009.93 1009.61 1009.57 1009.53 1009.19 1008.70 1008.23 1008.08 1007.62 1006.99 1006.40 1005.80 1005.31 1004.85 1004.41 1004.02 1003.95 1003.80 1003.75 1003.72 1003.35 1003.20 1002.99 1002.88 1002.73 1002.60 1002.69 1002.82 1003.04 1003.22 1003.45 1003.74 1003.95 1004.13 1004.13
1012.31 1012.95 1013.39 1013.36 1012.53 1011.76 1011.52 1011.11 1010.61 1010.09 1009.98 1009.66 1009.57 1009.37 1009.22 1008.74 1007.88 1007.20 1006.64 1005.76 1005.29 1005.23 1004.86 1004.49 1004.04 1003.52 1003.18 1003.16 1003.02 1002.69 1002.34 1002.16 1002.04 1001.95 1001.96 1001.94 1002.07 1002.28 1002.54 1002.71 1002.79 1002.97 1003.20 1003.14
1011.78 1012.78 1013.46 1013.99 1013.70 1012.09 1011.52 1010.67 1010.25 1010.12 1009.98 1010.07 1009.74 1009.18 1008.70 1008.15 1007.28 1006.09 1005.76 1005.20 1004.86 1004.38 1003.85 1003.39 1003.19 1002.93 1002.57 1002.28 1002.09 1002.24 1001.90 1001.58 1001.33 1000.84 1000.76 1000.84 1001.08 1001.36 1001.64 1001.79 1001.92 1002.05 1002.26 1002.20
1011.68 1012.03 1013.30 1013.98 1013.91 1012.57 1011.18 1010.63 1010.02 1009.58 1010.06 1009.88 1009.79 1009.24 1008.73 1008.25 1007.04 1005.32 1005.42 1004.93 1004.15 1003.65 1002.93 1002.52 1002.12 1001.72 1001.39 1001.17 1001.44 1001.13 1000.06 1000.05 999.64 999.46 999.48 999.69 999.99 1000.33 1000.54 1000.69 1000.85 1001.08 1001.24 1001.30
1012.67 1013.04 1013.66 1013.72 1013.81 1012.29 1011.35 1010.44 1009.74 1010.45 1011.07 1009.96 1009.82 1009.16 1008.49 1007.69 1007.24 1004.80 1004.57 1003.84 1003.38 1002.58 1001.80 1001.39 1000.98 1000.17 999.52 999.56 999.91 999.35 998.89 998.07 997.89 998.15 998.36 998.67 998.91 999.24 999.51 999.66 999.82 1000.02 1000.33 1000.43
1013.03 1013.41 1013.67 1013.55 1013.40 1012.40 1011.18 1010.68 1011.13 1011.20 1010.71 1010.20 1009.48 1008.74 1007.72 1006.90 1005.52 1004.36 1003.41 1002.83 1002.11 1001.17 1000.35 1000.05 999.45 998.48 997.72 997.59 997.75 997.25 996.84 996.83 997.03 997.07 997.07 997.48 997.83 998.19 998.49 998.71 998.98 999.26 999.55 999.90
1012.94 1013.06 1013.39 1013.42 1012.58 1011.65 1011.39 1011.43 1011.13 1011.06 1010.79 1009.91 1009.13 1008.09 1007.13 1005.72 1004.60 1003.74 1002.82 1001.71 1000.52 999.73 998.83 998.38 997.82 996.86 996.18 995.78 995.69 995.18 994.95 995.59 995.80 996.04 996.29 996.56 996.83 997.17 997.47 997.78 997.99 998.51 998.70 998.96
1012.80 1012.67 1013.16 1013.47 1012.46 1011.90 1011.20 1011.17 1010.94 1010.76 1010.24 1009.33 1008.33 1007.31 1006.12 1005.08 1004.44 1003.33 1002.00 1000.53 999.38 998.28 997.16 996.57 995.84 994.93 994.16 994.12 993.98 993.63 993.93 994.16 994.51 994.77 995.12 995.53 995.92 996.17 996.51 996.72 996.82 997.28 997.78 998.12
1013.49 1013.39 1013.84 1013.72 1012.78 1012.13 1011.07 1010.99 1010.90 1010.02 1009.18 1008.13 1007.23 1006.47 1005.55 1004.82 1003.79 1002.40 1000.60 999.54 998.08 996.62 995.36 994.65 993.67 992.67 991.90 992.10 992.19 992.23 992.46 992.90 993.29 993.59 994.01 994.51 994.89 995.22 995.54 995.79 995.96 996.40 996.74 996.94
1013.53 1013.83 1014.36 1014.11 1013.53 1013.37 1012.11 1011.19 1010.71 1009.96 1008.63 1007.53 1006.42 1005.37 1005.21 1004.74 1003.03 1001.50 1000.08 998.51 996.97 995.27 993.40 991.74 990.66 989.90 989.27 989.65 990.46 991.02 991.27 991.57 992.12 992.63 992.97 993.49 993.98 994.36 994.71 995.05 995.48 995.77 995.91 996.03
Wind_Speed
6 2 6 13 11 14 9 12 15 16 15 4 7 10 10 17 10 9 6 8 9 10 9 7 8 6 7 7 9 7 6 3 3 3 1 2 5 3 3 4 5 9 11 10
5 7 15 12 12 12 14 15 17 10 7 5 7 12 8 9 7 8 8 8 8 3 6 6 9 9 5 7 8 9 8 6 3 2 2 1 1 2 2 4 4 6 7 10
9 13 10 11 13 14 15 14 6 7 4 5 4 8 7 6 5 5 6 6 6 10 9 8 12 10 9 9 8 9 9 8 6 4 2 1 1 2 1 4 7 8 8 3
8 9 9 12 11 8 6 8 7 4 4 4 3 7 7 5 8 7 9 4 9 9 8 11 14 8 11 9 7 8 8 8 5 5 4 4 3 2 2 3 3 6 10 9
13 6 7 11 5 7 5 10 6 4 2 1 5 1 10 4 10 10 11 9 10 12 16 14 11 12 6 7 7 7 6 4 4 4 4 3 4 3 3 3 5 6 4 8
9 2 1 2 10 2 5 5 6 6 3 2 7 6 10 7 6 6 8 16 17 11 10 12 11 10 7 7 7 7 8 5 3 2 1 2 3 3 2 2 2 4 4 4
8 8 7 4 7 2 6 4 3 6 4 12 5 5 19 2 7 4 18 23 11 9 11 17 18 14 10 10 9 7 9 7 6 6 5 5 5 4 5 5 4 3 3 3
4 6 6 4 3 3 3 7 7 8 4 12 6 8 8 5 6 6 15 21 11 11 12 17 17 14 13 12 11 9 8 7 7 7 7 6 7 5 5 5 4 4 3 4
4 7 3 8 4 3 2 4 3 3 4 4 6 7 9 6 2 11 13 20 6 8 9 12 8 9 9 9 9 10 10 9 9 9 7 7 7 7 6 8 5 4 5 5
3 5 6 1 2 4 6 6 4 2 4 5 5 6 6 4 4 12 14 13 14 17 11 4 5 8 8 8 10 10 12 12 10 9 7 7 7 7 7 5 6 7 6 4
3 3 6 3 4 3 1 4 2 3 2 2 4 6 4 5 4 3 10 13 6 8 8 9 9 10 4 7 9 11 9 9 8 8 8 7 7 7 6 6 7 6 5 6
2 4 3 8 12 5 3 4 3 4 4 4 3 7 6 4 5 7 7 7 5 4 4 4 6 6 6 6 7 11 8 7 8 7 6 7 6 6 5 5 7 7 7 6
6 0 3 10 5 4 1 5 4 3 2 5 2 6 2 8 9 4 6 9 11 11 10 5 4 2 3 5 4 7 10 11 11 8 8 7 7 6 5 4 5 6 6 7
7 3 6 5 8 5 5 4 8 8 3 5 5 9 9 6 8 10 8 2 7 14 15 3 6 8 3 1 1 2 2 3 2 5 5 5 5 5 4 3 4 5 6 7
6 5 4 6 10 12 13 13 12 10 11 4 3 3 2 3 6 8 7 6 3 5 5 5 6 7 6 6 6 3 5 7 5 7 7 7 7 6 5 5 5 5 6 7
3 4 2 4 13 8 13 9 9 1 3 4 5 5 1 5 6 6 7 7 8 7 9 8 8 6 7 7 7 7 8 8 8 8 9 8 7 6 7 6 6 6 8 11
2 3 3 5 7 12 3 9 5 5 2 3 2 1 5 7 8 7 7 8 11 11 6 7 6 7 7 7 8 9 11 11 11 11 10 10 8 8 7 7 7 7 8 9
3 3 3 5 6 1 5 0 4 12 5 6 6 8 8 8 9 13 10 12 8 7 8 8 7 9 8 8 9 11 8 9 11 11 10 9 9 9 8 8 11 11 7 8
7 4 1 1 1 6 10 3 6 6 4 5 7 11 13 13 16 16 9 5 11 17 18 16 15 14 15 17 16 13 12 12 14 16 14 13 11 11 10 11 12 11 8 10
2 4 5 1 2 4 2 8 9 7 6 8 10 13 13 15 16 14 11 16 20 19 14 19 22 20 19 20 19 23 23 20 17 14 13 11 10 12 13 14 13 12 9 12
3 2 5 2 3 7 5 9 8 6 7 14 12 13 16 17 15 26 21 21 18 20 25 24 25 25 26 21 18 21 19 19 17 17 16 15 13 13 14 15 12 11 12 12
3 0 2 2 3 7 5 5 2 3 6 11 14 18 19 20 24 22 21 24 29 28 26 24 23 24 23 20 18 21 23 18 16 14 13 12 11 11 13 12 9 10 11 7
1 5 4 6 6 3 2 6 1 3 10 13 18 19 21 24 25 20 25 30 29 29 25 21 21 23 22 20 18 21 20 18 16 14 13 12 14 13 12 10 10 7 9 9
4 3 2 5 1 6 12 3 7 12 14 17 19 22 24 22 18 28 31 28 25 25 24 21 23 24 22 19 20 21 19 16 15 16 15 13 12 11 11 9 7 8 8 8
3 3 1 5 4 12 1 9 13 19 21 20 21 21 18 20 24 31 27 28 25 25 23 20 21 21 23 20 19 19 18 17 15 14 13 12 10 9 9 9 8 8 10 11
1 2 3 5 1 4 13 15 18 19 22 22 22 20 19 23 29 29 26 25 23 24 25 23 22 22 24 20 18 17 16 16 15 13 10 7 8 8 8 9 7 6 9 10
Wind_Direction
291 97 233 235 223 235 239 257 264 270 276 248 249 277 281 302 214 226 212 192 176 173 197 150 140 135 137 142 130 126 104 84 113 123 205 282 198 181 148 166 197 215 199 198
348 258 254 248 257 247 247 253 262 272 248 265 280 285 288 287 246 181 188 219 244 220 176 157 146 151 174 156 137 122 119 111 84 93 124 119 308 260 199 145 137 250 235 176
210 241 266 260 264 265 268 242 233 237 306 313 316 291 302 301 282 209 217 208 202 206 204 175 166 172 160 164 167 144 136 128 131 116 76 34 338 359 312 201 184 191 202 212
239 249 257 289 294 288 279 251 253 263 70 243 91 282 301 293 286 303 303 269 232 233 210 193 179 179 176 175 155 139 143 144 139 124 131 172 178 250 262 303 302 192 176 199
236 253 273 285 308 9 288 294 240 193 200 58 237 155 277 310 289 289 293 266 267 233 219 183 180 170 166 141 154 145 134 130 137 147 140 177 182 201 255 294 321 304 245 186
230 348 119 200 309 145 315 18 15 352 86 285 263 164 282 246 234 292 283 291 277 233 204 151 142 134 154 167 154 153 153 174 170 140 212 201 240 240 273 270 267 288 292 275
1 319 304 332 287 214 66 51 4 321 320 248 174 190 238 346 287 284 331 300 233 176 150 142 148 157 155 163 170 167 170 180 184 195 207 205 225 232 237 240 240 245 296 287
90 324 359 22 13 357 302 167 178 231 224 273 313 241 250 217 292 324 352 305 164 149 148 146 155 162 165 171 173 169 166 176 194 205 223 213 208 203 214 224 235 232 217 226
199 225 249 242 106 238 69 230 220 125 215 254 248 291 315 253 340 12 4 18 34 134 156 161 162 156 164 157 170 171 177 193 194 197 208 222 217 212 224 233 217 215 213 235
191 287 239 0 157 242 193 303 74 160 233 235 258 243 249 341 344 10 348 -0 40 19 1 352 173 181 187 168 186 184 181 186 189 188 190 206 222 234 227 226 232 221 235 247
127 137 288 340 235 200 277 224 37 127 202 297 322 278 240 174 142 81 321 295 46 44 19 26 19 338 259 190 190 203 194 191 199 198 206 210 224 227 236 246 258 250 234 229
84 148 257 254 285 203 163 165 160 132 213 229 205 266 267 152 145 183 222 249 274 87 38 349 323 342 356 310 227 199 198 195 207 203 213 213 220 231 236 252 266 279 262 238
178 19 347 333 354 331 93 184 139 108 112 229 202 251 333 335 317 247 230 174 313 300 291 11 340 229 3 17 2 291 192 206 209 196 188 189 191 184 198 223 254 260 258 266
137 158 169 208 241 229 285 246 200 173 178 214 226 308 322 338 3 343 338 276 203 228 264 333 305 297 298 302 255 14 329 306 178 145 154 171 184 193 216 257 278 278 269 268
132 201 226 264 281 285 279 281 283 209 232 225 288 305 326 337 317 303 302 318 315 310 288 274 254 270 278 290 319 322 214 204 199 186 186 199 201 211 220 227 239 259 267 265
355 249 264 272 280 289 312 320 287 339 130 229 271 235 300 296 304 306 324 311 307 260 247 240 247 268 260 248 218 232 240 229 208 208 207 208 212 227 239 251 258 266 283 285
222 139 41 276 302 303 353 348 342 306 257 240 252 295 326 310 301 304 280 280 280 267 315 317 301 288 278 255 244 238 236 235 225 217 209 205 204 216 225 231 236 241 245 254
221 111 130 271 341 286 144 235 21 296 357 52 355 336 318 290 298 300 281 272 287 295 293 280 275 281 270 259 262 269 238 225 220 221 219 211 203 212 216 228 241 244 233 238
156 141 70 163 240 280 175 1 326 325 262 27 354 337 325 315 309 295 262 255 295 303 296 290 286 277 275 277 280 269 257 239 232 225 214 207 204 215 220 230 238 237 235 244
96 131 132 144 286 247 29 326 296 287 257 11 339 330 322 323 303 295 300 291 290 278 279 287 280 275 267 264 267 262 253 249 240 235 222 208 207 221 233 238 237 235 234 242
309 344 171 205 231 281 349 305 312 69 273 326 324 304 300 295 286 294 295 286 280 282 286 285 282 273 268 264 255 256 259 252 250 238 231 225 221 226 233 232 227 227 233 241
193 177 231 190 229 289 13 349 54 253 297 303 307 304 299 293 291 289 294 297 295 287 283 279 277 270 264 256 248 251 247 249 250 244 226 220 226 237 240 224 220 220 229 223
119 184 201 169 228 258 308 245 247 275 298 300 300 300 300 299 300 306 307 304 299 295 289 281 275 269 262 256 248 247 241 238 240 230 223 230 240 229 220 222 224 217 217 225
346 47 129 27 280 313 314 348 335 319 304 302 302 307 302 309 311 302 300 296 294 290 285 282 275 267 261 251 247 239 245 237 239 237 229 230 231 223 222 221 204 214 217 220
226 355 19 264 305 324 328 336 317 314 310 304 304 303 315 305 305 302 305 302 295 292 288 280 270 264 258 251 247 240 235 228 226 227 225 223 221 217 215 216 220 218 220 215
180 187 129 244 290 239 284 299 306 304 306 306 307 315 323 320 311 311 305 301 302 301 295 287 273 256 248 238 235 236 232 217 212 219 216 210 219 222 215 219 218 229 246 222